This is the latest recevied weather packets stored in our database for station/object YO8CLN-10. If no packets are shown the sender has not sent any weather packets the latest 1 day(s).
| Time | Temp. | Humidity | Pressure | Rain* | Wind** | Luminosity | Snow |
|---|---|---|---|---|---|---|---|
| 1778065287 | 25° C | 32% | 1111 hPa | 0 mm | - | - | - |
| 1778064086 | 23.89° C | 33% | 1111 hPa | 0 mm | - | - | - |
| 1778062885 | 23.89° C | 32% | 1111 hPa | 0 mm | - | - | - |
| 1778062284 | 25° C | 31% | 1111 hPa | 0 mm | - | - | - |
| 1778061083 | 25.56° C | 30% | 1111 hPa | 0 mm | - | - | - |
| 1778060482 | 25.56° C | 31% | 1111 hPa | 0 mm | - | - | - |
| 1778059882 | 25° C | 33% | 1111 hPa | 0 mm | - | - | - |
| 1778059281 | 25° C | 35% | 1111 hPa | 0 mm | - | - | - |
| 1778058681 | 24.44° C | 35% | 1111 hPa | 0 mm | - | - | - |
| 1778056879 | 23.89° C | 37% | 1111 hPa | 0 mm | - | - | - |
| 1778055678 | 22.78° C | 38% | 1111 hPa | 0 mm | - | - | - |
| 1778055077 | 22.22° C | 42% | 1111 hPa | 0 mm | - | - | - |
| 1778054477 | 21.11° C | 44% | 1111 hPa | 0 mm | - | - | - |
| 1778053876 | 20.56° C | 45% | 1111 hPa | 0 mm | - | - | - |
| 1778052675 | 19.44° C | 47% | 1111 hPa | 0 mm | - | - | - |
| 1778051474 | 17.78° C | 50% | 1111 hPa | 0 mm | - | - | - |
| 1778050273 | 16.67° C | 53% | 1111 hPa | 0 mm | - | - | - |
| 1778049672 | 15.56° C | 54% | 1111 hPa | 0 mm | - | - | - |
| 1778048471 | 14.44° C | 56% | 1111 hPa | 0 mm | - | - | - |
| 1778047270 | 12.78° C | 59% | 1111 hPa | 0 mm | - | - | - |
| 1778046669 | 12.22° C | 60% | 1111 hPa | 0 mm | - | - | - |
| 1778046069 | 11.67° C | 62% | 1111 hPa | 0 mm | - | - | - |
| 1778045468 | 10.56° C | 63% | 1111 hPa | 0 mm | - | - | - |
| 1778044267 | 9.44° C | 68% | 1111 hPa | 0 mm | - | - | - |
| 1778043666 | 8.33° C | 69% | 1111 hPa | 0 mm | - | - | - |
* Rain latest hour (hover to see other rain measurements)
** Current wind speed in m/s (hover to see current wind gust speed)